CW0315 Weather Reports


time (UTC)temp
C
wind
direction
speed
KPH
gust
KPH
rain 1hr
cm
rain 24hr
cm
rain mn
cm
humidity
%
barometer
mb
20260505204310 11 45 8.0 12.9 0.15 0.15 0.15 90 1004.4
20260505203309 12 22 8.0 14.5 0.15 0.15 0.15 90 1004.3
20260505202309 12 45 8.0 11.3 0.15 0.15 0.15 90 1004.4
20260505201309 12 45 4.8 6.4 0.13 0.13 0.13 89 1004.5
20260505200309 12 0 0.0 0.0 0.08 0.08 0.08 86 1004.6
20260505195309 13 0 0.0 0.0 0.05 0.05 0.05 78 1004.8
20260505194314 13 0 0.0 0.0 0.00 0.00 0.00 75 1004.4
20260505193314 14 292 0.0 8.0 0.00 0.00 0.00 73 1004.3
20260505192314 14 202 9.7 14.5 0.00 0.00 0.00 74 1004.3
20260505191313 14 0 0.0 3.2 0.00 0.00 0.00 73 1004.3
20260505190313 15 180 1.6 12.9 0.00 0.00 0.00 71 1004.0
20260505185313 15 180 4.8 11.3 0.00 0.00 0.00 67 1004.2
20260505184313 15 180 1.6 14.5 0.00 0.00 0.00 64 1003.7
20260505181312 16 180 1.6 19.3 0.00 0.00 0.00 52 1002.2
20260505180313 16 0 0.0 0.0 0.00 0.00 0.00 53 1002.1
20260505175312 16 0 0.0 0.0 0.00 0.00 0.00 51 1001.9
20260505173312 18 0 0.0 0.0 0.00 0.00 0.00 45 1002.2
20260505172312 19 0 0.0 4.8 0.00 0.00 0.00 40 1002.1
20260505171312 19 157 0.0 9.7 0.00 0.00 0.00 40 1001.8
20260505170312 20 0 0.0 6.4 0.00 0.00 0.00 38 1001.9
20260505165311 20 270 1.6 4.8 0.00 0.00 0.00 36 1002.1
20260505163311 21 180 3.2 8.0 0.00 0.00 0.00 33 1002.3
20260505162311 21 180 3.2 9.7 0.00 0.00 0.00 32 1002.3
20260505153310 21 270 3.2 11.3 0.00 0.00 0.00 32 1002.7
20260505151310 22 202 11.3 20.9 0.00 0.00 0.00 27 1002.7
20260505150310 22 247 1.6 6.4 0.00 0.00 0.00 28 1002.7
20260505140309 22 202 4.8 11.3 0.00 0.00 0.00 30 1003.7
20260505124314 21 180 4.8 14.5 0.00 0.00 0.00 37 1004.6
20260505123313 22 292 3.2 14.5 0.00 0.00 0.00 41 1005.0
20260505122313 21 180 3.2 12.9 0.00 0.00 0.00 39 1005.0
20260505121313 21 202 1.6 11.3 0.00 0.00 0.00 39 1005.1
20260505115312 21 202 8.0 16.1 0.00 0.00 0.00 42 1004.9
20260505114312 21 180 4.8 9.7 0.00 0.00 0.00 43 1005.0
20260505113312 21 202 0.0 8.0 0.00 0.00 0.00 38 1005.2
20260505112312 21 180 1.6 11.3 0.00 0.00 0.00 40 1005.1
20260505110312 21 270 3.2 9.7 0.00 0.00 0.00 47 1005.7
20260505094311 21 180 4.8 12.9 0.00 0.00 0.00 46 1006.3
20260505093311 20 202 9.7 17.7 0.00 0.00 0.00 46 1006.1
20260505092310 19 202 4.8 11.3 0.00 0.00 0.00 50 1006.1
20260505091311 20 202 6.4 12.9 0.00 0.00 0.00 48 1006.7
20260505090310 19 180 4.8 9.7 0.00 0.00 0.00 48 1006.6
20260505085310 20 292 3.2 9.7 0.00 0.00 0.00 49 1006.6
20260505084310 20 292 4.8 12.9 0.00 0.00 0.00 50 1006.6
20260505083310 18 202 8.0 11.3 0.00 0.00 0.00 51 1006.4
20260505082310 19 157 1.6 9.7 0.00 0.00 0.00 49 1006.7
20260505081310 18 180 4.8 9.7 0.00 0.00 0.00 52 1006.5
20260505080310 18 180 0.0 11.3 0.00 0.00 0.00 55 1006.6
20260505075309 18 67 0.0 11.3 0.00 0.00 0.00 56 1006.6
20260505073311 17 180 4.8 8.0 0.00 0.00 0.00 55 1006.4
20260505072311 17 202 1.6 4.8 0.00 0.00 0.00 53 1006.4
20260505071311 17 0 0.0 0.0 0.00 0.00 0.00 58 1006.6
20260505070311 16 0 0.0 6.4 0.00 0.00 0.00 58 1006.4
20260505064311 16 0 0.0 4.8 0.00 0.00 0.00 62 1006.8
20260505062310 16 0 0.0 0.0 0.00 0.00 0.00 58 1007.1
20260505061310 15 0 0.0 0.0 0.00 0.00 0.00 64 1006.9
20260505055310 13 0 0.0 8.0 0.00 0.00 0.00 72 1006.7
20260505053310 12 45 8.0 9.7 0.00 0.00 0.00 72 1006.5
20260505052310 11 45 6.4 9.7 0.00 0.00 0.00 74 1006.5
20260505051310 11 45 6.4 9.7 0.00 0.00 0.00 75 1006.5
20260505041314 11 45 6.4 9.7 0.00 0.00 0.00 72 1007.0
20260505040314 12 45 6.4 9.7 0.00 0.00 0.00 70 1007.2
20260505035313 12 45 6.4 8.0 0.00 0.00 0.00 69 1007.2
20260505033314 11 45 6.4 9.7 0.00 0.00 0.00 70 1007.1
20260505032313 11 45 6.4 9.7 0.00 0.00 0.00 71 1007.3
20260505031313 11 45 4.8 6.4 0.00 0.00 0.00 71 1007.4
20260505030313 11 45 6.4 8.0 0.00 0.00 0.00 70 1007.4
20260505025313 11 45 6.4 8.0 0.00 0.00 0.00 70 1007.4
20260505024313 11 45 6.4 8.0 0.00 0.00 0.00 69 1007.5
20260505023312 11 22 4.8 6.4 0.00 0.00 0.00 69 1007.5
20260505022312 11 45 6.4 8.0 0.00 0.00 0.00 68 1007.6
20260505021313 11 45 6.4 8.0 0.00 0.00 0.00 67 1007.8
20260505020312 11 45 6.4 8.0 0.00 0.00 0.00 66 1008.1
20260505013312 12 45 3.2 8.0 0.00 0.00 0.00 65 1008.2
20260505012312 12 45 4.8 6.4 0.00 0.00 0.00 64 1008.2
20260505010311 12 45 4.8 4.8 0.00 0.00 0.00 64 1008.5
20260505004311 13 22 3.2 6.4 0.00 0.00 0.00 58 1008.7
20260505003313 13 22 4.8 8.0 0.00 0.00 0.00 58 1008.6
20260505002311 13 45 6.4 8.0 0.00 0.00 0.00 59 1008.6
20260505001310 13 22 8.0 9.7 0.00 0.00 0.00 57 1008.7
20260505000311 13 45 6.4 8.0 0.00 0.00 0.00 60 1008.6
20260504234310 13 22 3.2 6.4 0.00 0.00 0.00 60 1008.9
20260504233310 13 0 0.0 6.4 0.00 0.00 0.00 61 1008.8
20260504232310 13 0 0.0 6.4 0.00 0.00 0.00 60 1008.8
20260504225309 15 0 0.0 0.0 0.00 0.00 0.00 55 1008.9
20260504223311 16 22 4.8 8.0 0.00 0.00 0.00 52 1009.1
20260504222309 16 22 3.2 4.8 0.00 0.00 0.00 55 1008.9
20260504221309 16 360 1.6 4.8 0.00 0.00 0.00 48 1009.5
20260504220314 16 45 9.7 16.1 0.00 0.00 0.00 51 1010.2
20260504215314 16 67 6.4 16.1 0.00 0.00 0.00 54 1010.1
20260504211314 17 202 0.0 4.8 0.00 0.00 0.00 48 1010.3
20260504210313 17 360 4.8 12.9 0.00 0.00 0.00 49 1009.8